Showing default

GEESAT 2-09, 58913

Orbit data source: Space-Track

GEESAT 2-09, 58913 is a payload satellite owned by GeeSpace (CN) in LEO that was launched on Fri, 02 Feb 2024 UTC via a CHANG ZHENG 2C launch vehicle from the Xichang Space Center, China (XSC). Payload-class satellites include a variety of spacecraft equipped with specific instruments for various scientific and technological missions. These include communications satellites like Starlink; space stations such as the ISS; scientific satellites like the Hubble; Earth observation satellites from companies like Planet Labs, Umbra, and HawkEye 360; GPS; miniature CubeSats for education and research; and military/defense satellites.

Loading next visibility...
Identifier
58913, 2024-023J
Orbit
LEO
Last TLE update
7 hours ago
Origin
Manufacturer
Taizhou Xingkong
Mission
Operational Commercial Navigation
Bus & Motor
GEESAT1, Unknown motor
Mass
130 kg wet, 130 kg dry
Launch date (UTC)
2024-02-02 (1 year ago)
Launch vehicle
CHANG ZHENG 2C
Launch site
Xichang Space Center, China (XSC)
Object type
Payload
Rocket body
Debris
Shape & HBR
Box + 2 Pan, 2 m
Radar Cross Section
0.833 m², Medium (>0.1 m² and < 1m²)

Expand to show TLE details & history

TLE from 7 hours ago
0 GEESAT 2-09
1 58913U 24023J   25184.21359997  .00002222  00000-0  23254-3 0  9999
2 58913  50.0020 176.5392 0007229 272.9241  87.0874 14.93389364 77036
Epoch: 2025-07-03T05:07Z
TLE epoch observation values (Epoch: 2025-07-03T05:07:35.037Z)
Latitude
-0.00002°
Longitude
178.15962°
Altitude
587.671 km
Speed
7.568 km/s
True Right ascension
11h 46m 09s
True Declination
0° 00' 00"
Sunlit
Object was in daylight at epoch
Visualization orbit readout
Latitude
14.78147°
Longitude
-15.96076°
Altitude
589.206 km
Speed
7.567 km/s
Apparent Right ascension
20h 24m 23s
Apparent Declination
-41° 40' 10"
Sunlit
Object is in daylight
Visualization observer readout
Local Sidereal Time
00:02:38
Azimuth
217.686° SW
Elevation
-5.417°
Doppler factor
1
Orbital elements
Apogee altitude
593.174 km
Perigee altitude
583.102 km
Semi-major axis
6,966.275 km
Eccentricity
0.00072
Inclination
50.002°
RAAN
176.5392°
Arg. of periapsis
272.9241°
True anomaly
Unknown
Mean anomaly
87.0874°
Eccentric anomaly
Unknown
Mean motion
3.73286 °/min
Orbital period
96.44 mins
BSTAR
0.00023254
Loading maneuver chart data...
Loading SW <> Apogee altitude chart data...
Loading historical data...
Loading historical data...
Loading historical data...
Loading historical data...
Loading historical data...
Loading historical data...
Loading historical data...

GEESAT 2-09 Visibility forecast

Observer location: undefined°, undefined°

Span
Click to sort rows by Start time (UTC) header in descending order
Start Az.
Max El. time (UTC)
Max El. Az.
Max El.
End time (UTC)
End Az.
7 mins2025-07-04 02:10:59.923Z218.6° SW2025-07-04 02:13:59.923Z169.39° S40.227°2025-07-04 02:17:59.923Z63.232° ENE
6 mins2025-07-04 03:52:59.923Z287.812° WNW2025-07-04 03:54:59.923Z329.717° NNW28.736°2025-07-04 03:58:59.923Z43.202° NE
5 mins2025-07-04 05:34:59.923Z324.81° NNW2025-07-04 05:36:59.923Z0.569° NNE20.091°2025-07-04 05:39:59.923Z47.572° ENE
6 mins2025-07-04 07:15:59.923Z325.852° NNW2025-07-04 07:18:59.923Z31.815° NE28.453°2025-07-04 07:21:59.923Z82.118° E
6 mins2025-07-04 08:56:59.923Z292.799° NW2025-07-04 08:59:59.923Z186.319° SSW40.244°2025-07-04 09:02:59.923Z140.583° SSE
|